カタログに戻る

CZ-2D R/B

運用中PO
NORAD 39154·ROCKET BODY·🇨🇳 China

打ち上げ Apr 26, 2013 から Jiuquan Satellite Launch Center

Loading…

次のパス (今後24時間)

TLE

最新Source: Space-Track

元期: Sep 14, 2026, 10:00 UTC

1 39154U 13018E   26257.41679110  .00000597  00000-0  83058-4 0  9995
2 39154  98.4439 235.0154 0018072 122.7982 237.4973 14.81710766721321

AllMySatでCZ-2D R/Bをリアルタイム追跡

Download on the App Store